Location: Unspecified
(0.0000°N, 0.0000°E)
Time: 10:50:03
(UTC+00:00)

A-11 Canister half - Pass Details

Date: 06 August 2021
Orbit: 1515 x 1685 km, 47.2° (Epoch: 27 September)

Event Time Altitude Azimuth Distance (km) Brightness Sun altitude
Rises 14:45:09 0° 265° (W) 4,681 12.1 47.4°
Reaches altitude 10° 14:50:39 10° 291° (WNW) 3,725 12.0 46.2°
Maximum altitude 14:54:28 13° 316° (NW) 3,515 11.9 45.3°
Drops below altitude 10° 14:58:20 10° 341° (NNW) 3,773 11.7 44.4°
Sets 15:04:05 0° 7° (N) 4,798 11.8 43.1°
